LRBS Weather Reports


Display with metric or nautical units.
time (UTC)temp
F
wind
direction
speed
MPH
gust
MPH
rain 1hr
in
rain 24hr
in
rain mn
in
humidity
%
barometer
mb
20260903061814 70 50 8.0 0.0 0.00 0.00 0.00 78 1017.0
20260903060319 70 50 8.0 0.0 0.00 0.00 0.00 78 1017.0
20260903054819 70 40 7.0 0.0 0.00 0.00 0.00 73 1017.0
20260903053314 70 40 7.0 0.0 0.00 0.00 0.00 73 1017.0
20260903051815 68 50 7.0 0.0 0.00 0.00 0.00 78 1017.0
20260903050316 68 50 7.0 0.0 0.00 0.00 0.00 78 1017.0
20260903044814 68 50 5.0 0.0 0.00 0.00 0.00 78 1017.0
20260903043314 68 50 5.0 0.0 0.00 0.00 0.00 78 1017.0
20260903041814 66 10 3.0 0.0 0.00 0.00 0.00 83 1017.0
20260903040314 66 10 3.0 0.0 0.00 0.00 0.00 83 1017.0
20260903034814 68 40 5.0 0.0 0.00 0.00 0.00 78 1017.0
20260903033314 68 40 5.0 0.0 0.00 0.00 0.00 78 1017.0
20260903031814 68 40 5.0 0.0 0.00 0.00 0.00 78 1017.0
20260903030422 68 360 6.0 0.0 0.00 0.00 0.00 78 1017.0
20260903024922 68 360 6.0 0.0 0.00 0.00 0.00 78 1017.0
20260903023402 68 360 6.0 0.0 0.00 0.00 0.00 78 1017.0
20260903021813 68 40 3.0 0.0 0.00 0.00 0.00 78 1017.0
20260903020429 68 40 3.0 0.0 0.00 0.00 0.00 78 1017.0
20260903014815 70 20 6.0 0.0 0.00 0.00 0.00 73 1017.0
20260903013313 70 20 6.0 0.0 0.00 0.00 0.00 73 1017.0
20260903011814 70 70 8.0 0.0 0.00 0.00 0.00 69 1017.0
20260903010314 70 70 8.0 0.0 0.00 0.00 0.00 69 1017.0
20260903004814 70 60 9.0 0.0 0.00 0.00 0.00 69 1017.0
20260903003314 70 60 9.0 0.0 0.00 0.00 0.00 69 1017.0
20260903001814 70 60 7.0 0.0 0.00 0.00 0.00 69 1017.0
20260903000314 70 60 7.0 0.0 0.00 0.00 0.00 69 1017.0
20260902234814 70 50 8.0 0.0 0.00 0.00 0.00 73 1017.0
20260902233314 70 50 8.0 0.0 0.00 0.00 0.00 73 1017.0
20260902231815 68 10 8.0 0.0 0.00 0.00 0.00 73 1018.0
20260902230313 68 10 8.0 0.0 0.00 0.00 0.00 73 1018.0
20260902224814 68 30 3.0 0.0 0.00 0.00 0.00 73 1017.0
20260902223314 68 30 3.0 0.0 0.00 0.00 0.00 73 1017.0
20260902221814 70 350 5.0 0.0 0.00 0.00 0.00 69 1017.0
20260902220314 70 350 5.0 0.0 0.00 0.00 0.00 69 1017.0
20260902214814 70 2.0 0.0 0.00 0.00 0.00 69 1017.0
20260902213314 70 2.0 0.0 0.00 0.00 0.00 69 1017.0
20260902211815 70 40 5.0 0.0 0.00 0.00 0.00 69 1017.0
20260902210314 70 40 5.0 0.0 0.00 0.00 0.00 69 1017.0
20260902204813 72 30 5.0 0.0 0.00 0.00 0.00 65 1017.0
20260902203314 72 30 5.0 0.0 0.00 0.00 0.00 65 1017.0
20260902201814 72 40 5.0 0.0 0.00 0.00 0.00 65 1017.0
20260902200329 72 40 5.0 0.0 0.00 0.00 0.00 65 1017.0
20260902194814 72 30 5.0 0.0 0.00 0.00 0.00 65 1017.0
20260902193314 72 30 5.0 0.0 0.00 0.00 0.00 65 1017.0
20260902191814 72 20 5.0 0.0 0.00 0.00 0.00 65 1017.0
20260902190314 72 20 5.0 0.0 0.00 0.00 0.00 65 1017.0
20260902184814 73 10 6.0 0.0 0.00 0.00 0.00 61 1017.0
20260902183314 73 10 6.0 0.0 0.00 0.00 0.00 61 1017.0
20260902181814 75 360 10.0 0.0 0.00 0.00 0.00 57 1017.0
20260902180314 75 360 10.0 0.0 0.00 0.00 0.00 57 1017.0
20260902174814 77 350 11.0 0.0 0.00 0.00 0.00 57 1017.0
20260902173314 77 350 11.0 0.0 0.00 0.00 0.00 57 1017.0
20260902171814 81 10 7.0 0.0 0.00 0.00 0.00 48 1016.0
20260902170314 81 10 7.0 0.0 0.00 0.00 0.00 48 1016.0
20260902164928 82 20 7.0 0.0 0.00 0.00 0.00 45 1016.0
20260902163314 82 20 7.0 0.0 0.00 0.00 0.00 45 1016.0
20260902161814 84 10 5.0 0.0 0.00 0.00 0.00 43 1016.0
20260902160325 84 10 5.0 0.0 0.00 0.00 0.00 43 1016.0
20260902154815 86 30 6.0 0.0 0.00 0.00 0.00 40 1016.0
20260902153313 86 30 6.0 0.0 0.00 0.00 0.00 40 1016.0
20260902151814 88 10 5.0 0.0 0.00 0.00 0.00 38 1016.0
20260902150314 88 10 5.0 0.0 0.00 0.00 0.00 38 1016.0
20260902144814 88 50 3.0 0.0 0.00 0.00 0.00 38 1016.0
20260902143315 88 50 3.0 0.0 0.00 0.00 0.00 38 1016.0
20260902141811 88 5.0 0.0 0.00 0.00 0.00 35 1017.0
20260902140314 88 5.0 0.0 0.00 0.00 0.00 35 1017.0
20260902134814 88 110 5.0 0.0 0.00 0.00 0.00 38 1017.0
20260902133313 88 110 5.0 0.0 0.00 0.00 0.00 38 1017.0
20260902131814 88 80 6.0 0.0 0.00 0.00 0.00 38 1017.0
20260902130314 88 80 6.0 0.0 0.00 0.00 0.00 38 1017.0
20260902124816 88 80 8.0 0.0 0.00 0.00 0.00 38 1017.0
20260902123314 88 80 8.0 0.0 0.00 0.00 0.00 38 1017.0
20260902121815 86 50 8.0 0.0 0.00 0.00 0.00 40 1018.0
20260902120314 86 50 8.0 0.0 0.00 0.00 0.00 40 1018.0
20260902114814 86 60 8.0 0.0 0.00 0.00 0.00 40 1018.0
20260902113314 86 60 8.0 0.0 0.00 0.00 0.00 40 1018.0
20260902111814 86 60 9.0 0.0 0.00 0.00 0.00 43 1018.0
20260902110315 86 60 9.0 0.0 0.00 0.00 0.00 43 1018.0
20260902104814 84 80 10.0 0.0 0.00 0.00 0.00 43 1019.0
20260902103314 84 80 10.0 0.0 0.00 0.00 0.00 43 1019.0
20260902101814 84 70 11.0 0.0 0.00 0.00 0.00 45 1019.0
20260902100320 84 70 11.0 0.0 0.00 0.00 0.00 45 1019.0
20260902094814 82 70 13.0 0.0 0.00 0.00 0.00 48 1019.0
20260902093314 82 70 13.0 0.0 0.00 0.00 0.00 48 1019.0
20260902091814 82 80 14.0 0.0 0.00 0.00 0.00 48 1019.0
20260902090415 81 80 14.0 0.0 0.00 0.00 0.00 51 1019.0
20260902084814 81 80 14.0 0.0 0.00 0.00 0.00 51 1019.0
20260902083314 81 80 14.0 0.0 0.00 0.00 0.00 51 1019.0
20260902081814 77 50 14.0 0.0 0.00 0.00 0.00 57 1019.0
20260902080315 77 50 14.0 0.0 0.00 0.00 0.00 57 1019.0
20260902074850 77 60 11.0 0.0 0.00 0.00 0.00 57 1019.0
20260902073314 77 60 11.0 0.0 0.00 0.00 0.00 57 1019.0
20260902071811 75 70 11.0 0.0 0.00 0.00 0.00 65 1019.0
20260902070314 75 70 11.0 0.0 0.00 0.00 0.00 65 1019.0
20260902064814 73 70 10.0 0.0 0.00 0.00 0.00 65 1019.0
20260902063315 73 70 10.0 0.0 0.00 0.00 0.00 65 1019.0